Theta_e
316 316 317 317 317 316 316 316 315 315 314 314 314 313 313 314 315 315 322 327 317 313 315 317 316 313 318 319 313 313 312 312 310 307 306 305 306 307 305 306 305 304 302 302 303 300 297 316 315 308 318 322 324 325
315 316 316 317 317 315 315 315 314 314 313 313 313 313 313 313 314 314 317 323 321 314 314 318 318 319 317 319 319 316 314 313 313 309 309 309 305 308 308 301 311 303 307 304 308 305 315 317 316 319 322 322 324 327
315 316 316 316 315 315 314 313 313 313 313 313 313 312 312 313 314 313 316 319 318 313 313 314 313 320 320 318 324 315 317 319 316 319 314 311 308 311 303 304 307 311 314 308 307 311 313 315 318 320 321 322 325 327
316 316 315 315 314 314 313 312 313 313 313 313 312 312 312 313 313 313 313 320 317 313 306 311 321 317 321 319 317 319 319 322 321 321 313 310 308 313 307 309 309 311 316 312 309 313 315 316 318 321 323 324 325 327
315 315 314 314 314 313 312 312 312 312 312 312 311 311 312 313 313 314 316 317 318 313 307 310 315 318 320 321 316 318 317 318 317 314 311 308 312 312 314 311 308 312 311 307 306 314 315 317 321 325 325 324 327 326
312 312 313 312 312 312 312 312 312 311 312 312 311 311 312 314 312 313 309 317 317 315 309 305 316 315 318 317 317 318 316 316 317 315 312 313 317 314 308 306 311 314 316 317 313 318 316 321 324 326 324 326 326 327
310 311 311 311 311 312 311 311 311 311 312 311 311 312 313 313 314 311 309 312 314 316 310 306 309 314 318 318 316 315 318 317 317 315 314 312 314 313 309 307 313 315 316 317 318 319 317 320 320 324 324 323 325 323
310 309 309 310 311 310 310 310 310 311 311 311 311 312 313 312 311 310 317 311 316 312 313 305 308 312 317 312 311 316 314 317 317 315 315 312 316 315 309 314 315 317 318 316 317 321 320 321 323 322 321 319 316 318
310 309 309 310 310 309 309 309 310 310 311 311 312 313 313 310 308 312 315 315 317 312 308 308 307 304 318 314 313 313 315 310 316 311 312 314 315 307 313 315 315 316 316 316 317 320 320 319 322 323 320 319 316 317
310 310 309 309 309 309 307 307 309 310 310 312 313 309 306 312 314 315 313 310 309 312 311 307 313 308 315 312 311 310 311 308 305 310 313 310 309 318 320 321 321 320 318 318 316 317 318 317 319 322 323 324 323 321
310 310 309 309 309 308 308 308 309 310 310 312 310 309 315 314 314 312 306 305 307 305 309 308 309 308 317 311 308 311 307 308 303 307 308 307 306 313 319 320 323 323 321 319 319 322 322 321 320 322 323 324 322 321
310 309 308 308 308 308 308 308 310 311 314 309 310 315 316 312 309 304 303 305 305 303 310 309 309 310 314 318 315 312 307 308 300 311 306 305 310 320 319 319 321 323 320 319 319 318 320 322 321 323 323 324 323 323
309 308 308 308 308 308 308 309 310 309 309 315 308 306 309 308 297 299 297 301 303 307 311 311 308 310 312 314 312 310 304 305 312 305 302 307 319 320 321 322 320 323 323 320 320 320 322 323 324 323 323 325 323 324
308 308 307 307 308 308 308 309 309 310 310 306 305 296 302 301 302 303 303 304 310 314 312 311 309 308 309 306 309 303 307 309 302 299 301 311 317 321 323 324 320 321 323 322 321 320 322 324 323 325 325 326 323 322
307 307 307 306 307 307 308 309 309 312 309 304 306 296 302 307 307 308 309 310 312 314 312 312 310 309 308 305 306 305 302 300 301 302 308 316 321 323 324 323 322 320 322 322 321 321 322 324 324 324 325 325 324 323
307 305 307 308 307 307 308 309 311 312 307 307 306 303 306 304 303 307 307 307 311 312 313 315 309 304 303 304 302 300 299 298 303 310 314 320 324 325 326 327 326 324 324 324 323 323 323 325 324 324 324 324 324 324
304 306 309 308 307 308 308 309 309 304 303 304 304 308 306 307 305 309 310 310 316 310 307 307 303 302 307 301 300 304 302 306 309 314 317 325 324 325 327 326 327 326 326 325 325 325 325 326 326 324 324 325 324 325
304 309 308 309 310 308 309 309 308 306 301 305 302 305 306 309 307 307 309 312 313 314 311 306 309 305 301 299 303 307 311 313 317 318 319 325 326 326 326 326 327 327 327 327 326 326 326 326 327 323 325 325 325 325
305 310 307 309 310 308 304 307 309 301 303 305 306 307 307 306 308 310 310 313 314 318 317 313 306 303 303 308 308 310 312 313 313 316 318 324 326 325 326 327 327 327 327 327 326 324 325 328 324 324 324 324 322 323
305 305 306 308 309 305 302 304 310 304 301 306 307 306 306 306 308 309 309 310 309 310 306 306 306 308 308 311 316 314 314 317 315 314 315 317 319 323 324 324 323 326 325 326 326 316 324 324 323 322 322 322 321 321
305 308 308 308 307 306 304 303 302 303 305 306 307 307 307 308 308 306 305 309 306 305 305 310 311 313 319 317 320 318 318 318 315 314 315 314 319 320 321 323 325 323 322 322 322 320 317 322 320 320 321 321 322 322
308 310 307 307 303 305 303 308 305 308 307 306 306 308 305 302 304 307 312 308 307 309 311 311 312 313 315 318 317 321 320 319 321 319 308 312 316 319 319 322 321 320 320 321 321 319 320 319 320 321 321 320 316 320
307 308 306 304 300 299 298 310 304 305 301 305 306 303 305 307 310 311 304 309 310 314 314 313 317 320 317 320 321 321 322 320 318 320 318 317 323 326 324 323 322 319 318 319 320 319 318 313 316 319 320 319 319 320
306 304 299 299 300 296 305 302 306 304 305 303 302 301 306 311 313 307 304 311 313 318 319 320 318 316 317 319 316 316 318 318 317 317 320 319 316 321 323 321 321 320 320 319 319 319 320 319 313 319 319 319 319 318
295 295 297 290 301 299 298 300 301 302 301 303 302 303 309 313 307 305 307 312 318 318 321 324 320 317 315 315 317 318 322 320 314 312 315 318 318 319 320 323 322 323 323 320 320 321 322 322 321 320 320 319 319 318
290 299 295 299 300 298 299 297 299 300 303 302 304 310 314 310 303 302 310 316 317 319 319 322 323 322 320 320 320 326 324 320 316 316 319 320 319 321 320 322 323 324 327 325 323 322 322 322 322 322 319 316 306 319
291 297 302 306 303 303 302 305 306 303 301 301 308 307 308 301 302 309 317 320 320 323 325 325 325 323 322 325 323 326 325 323 321 320 320 320 321 321 320 317 316 320 325 323 323 322 321 322 321 321 319 318 317 317
301 301 298 302 302 305 299 301 302 300 304 311 309 303 302 302 304 315 318 321 322 323 326 323 324 324 322 325 325 324 324 325 325 323 322 323 323 323 324 326 326 304 325 326 324 324 322 321 320 319 317 315 315 316
300 304 303 300 301 303 303 303 303 308 313 310 306 305 308 316 319 317 319 320 325 325 321 320 323 323 322 324 323 323 323 322 320 318 317 318 320 321 325 324 323 324 324 323 302 313 319 318 317 315 314 313 314 313
301 305 300 301 300 300 304 308 310 315 316 316 315 314 316 316 316 320 320 318 322 319 322 322 325 322 321 319 317 319 322 321 320 317 315 317 319 321 323 323 323 322 321 320 319 316 302 311 307 314 314 314 312 311
303 303 301 301 300 304 307 312 313 312 311 311 316 313 311 313 317 320 319 322 318 317 320 319 318 316 316 314 314 314 314 319 321 322 320 321 321 323 323 323 323 321 319 318 316 315 316 315 315 313 313 311 311 310
303 301 300 299 301 308 311 308 306 306 309 310 308 310 311 309 307 310 314 316 313 314 310 315 315 313 316 316 316 317 306 319 320 320 321 320 321 322 322 321 320 320 318 317 315 315 314 314 312 312 312 312 312 311
303 304 304 302 303 303 307 304 304 305 308 307 309 312 312 311 307 313 313 314 313 317 317 315 316 318 320 317 317 316 313 318 306 295 297 296 295 303 317 317 317 316 315 314 313 313 312 311 311 311 311 311 312 311
Wind_Speed
15 12 12 13 13 13 12 11 10 9 8 6 6 6 5 5 7 7 4 1 7 8 14 14 13 12 12 8 11 11 11 11 11 12 10 4 10 7 6 7 5 7 9 9 8 7 8 6 4 8 8 9 7 12
13 12 12 12 13 12 11 9 8 8 7 6 6 6 4 4 6 6 6 3 4 7 12 16 15 17 18 15 13 4 13 13 8 9 6 3 7 6 6 8 10 7 8 8 8 7 4 3 8 7 7 7 8 9
11 9 9 10 11 11 9 7 8 8 6 6 5 4 3 5 5 6 6 7 6 7 12 14 13 17 19 17 14 9 8 5 10 3 4 5 6 4 6 7 7 12 11 6 10 11 10 4 7 9 11 10 10 1
7 6 9 11 11 10 8 8 7 6 6 5 5 4 4 5 5 7 5 5 6 6 7 4 2 8 9 15 19 16 12 5 7 4 9 6 9 4 7 3 8 6 5 6 9 14 14 11 7 8 7 9 9 2
5 7 8 7 9 9 7 7 5 6 5 5 4 4 6 6 6 8 7 6 6 8 7 9 17 17 13 11 17 16 14 12 7 8 8 7 9 6 10 3 8 9 9 10 10 7 3 6 3 1 7 6 11 4
5 6 7 7 6 6 6 3 5 5 5 5 4 5 6 5 6 4 4 5 7 5 7 6 2 6 7 12 13 14 12 11 10 10 7 8 5 6 5 8 6 8 12 9 10 7 3 5 4 5 6 6 7 8
3 4 4 6 6 5 4 4 5 5 4 4 4 6 6 5 6 4 5 5 3 5 6 6 5 8 7 8 10 11 13 10 9 10 10 6 7 6 9 10 10 10 10 7 7 7 5 9 8 7 7 6 11 10
2 3 2 2 3 3 3 4 3 3 4 4 5 5 4 4 6 6 6 11 6 6 5 5 5 4 9 7 8 8 8 9 8 10 10 8 7 5 7 10 7 11 12 13 10 11 12 11 11 12 7 6 6 9
6 5 5 4 4 3 3 1 2 3 4 5 5 4 3 3 4 2 11 11 7 5 7 6 9 3 7 9 8 8 9 9 6 10 11 8 8 3 8 11 10 11 11 12 11 14 15 10 15 16 14 12 8 5
6 6 7 5 4 3 2 2 4 5 5 4 4 4 5 4 18 15 8 6 7 7 6 7 8 4 5 7 5 8 6 8 10 11 7 9 10 11 14 17 15 14 13 11 14 15 14 11 11 13 14 12 10 7
7 7 7 5 4 5 5 3 5 6 5 4 5 1 5 4 6 5 5 7 7 5 6 7 11 6 3 5 6 7 5 9 8 5 9 10 12 14 15 16 11 14 14 12 12 11 13 13 12 13 12 12 9 10
8 7 6 5 5 5 4 4 5 6 1 3 4 2 3 4 5 6 5 5 6 7 6 7 6 7 1 3 2 2 5 3 5 4 6 9 10 10 11 12 9 13 15 14 12 9 12 15 13 12 13 12 10 11
7 6 6 6 6 6 5 5 5 6 8 4 4 3 5 5 4 7 9 6 6 6 3 6 7 4 4 4 3 4 5 3 5 3 4 7 3 6 4 3 4 8 16 16 14 11 11 14 13 13 11 12 10 10
7 7 6 6 7 7 6 5 4 5 4 5 6 5 6 7 6 7 5 6 5 1 4 5 6 5 7 8 5 5 6 3 5 6 12 4 6 5 5 5 4 7 10 13 16 14 13 14 13 13 12 12 11 11
6 6 6 8 9 8 7 5 4 4 4 4 4 5 8 7 2 8 0 2 4 4 0 3 4 5 6 6 5 4 7 8 5 9 5 11 11 1 2 4 6 8 8 11 14 13 14 15 14 14 13 13 12 11
5 4 7 6 8 11 7 6 5 2 3 5 6 8 6 4 4 7 6 6 2 4 4 2 3 4 6 4 7 9 7 5 3 3 7 6 5 5 5 5 5 7 7 9 13 14 14 15 16 14 14 14 14 14
6 3 8 3 7 8 10 4 4 5 4 5 6 7 7 4 6 5 4 5 0 6 8 4 6 6 4 7 11 7 11 9 4 6 4 7 5 4 5 5 5 5 6 9 12 14 14 15 15 15 14 14 15 14
4 6 6 8 9 7 3 4 4 5 7 8 8 8 6 8 9 6 3 4 4 4 7 6 5 5 6 7 7 1 6 0 3 2 7 4 5 5 5 5 5 5 7 9 12 14 14 15 14 12 14 15 14 13
8 6 8 10 4 2 5 5 4 5 7 6 6 7 6 7 6 8 9 3 5 3 2 3 7 7 9 5 3 8 4 5 6 5 4 2 2 3 6 6 5 5 8 10 12 12 12 14 13 12 12 13 12 12
5 4 5 5 3 3 4 3 3 5 5 2 5 7 6 7 6 8 9 9 8 6 6 7 9 8 4 4 3 5 4 5 7 7 7 8 9 8 5 4 7 5 7 9 11 11 12 11 12 11 12 13 12 12
6 3 5 5 3 3 3 3 3 4 5 4 3 5 5 4 7 7 7 7 8 10 11 10 11 10 9 5 2 3 4 4 4 5 8 8 7 7 6 4 6 7 8 9 11 11 12 12 11 10 11 11 12 11
1 5 2 3 2 2 5 6 4 2 4 6 5 4 3 3 5 7 5 8 11 10 10 11 10 10 7 7 8 6 6 4 9 7 7 8 10 9 10 6 7 8 9 10 10 11 11 10 9 10 10 10 10 10
3 2 2 2 4 5 6 4 5 5 5 3 4 5 5 5 5 6 4 6 8 10 7 8 12 13 7 6 4 6 7 10 8 4 3 5 7 9 11 6 7 9 10 9 10 10 10 10 8 9 10 9 9 9
2 3 4 4 7 4 4 4 4 4 5 7 5 6 4 4 7 4 5 4 5 3 5 4 5 7 8 10 8 7 7 6 4 6 8 8 6 6 8 8 8 7 6 7 6 9 9 8 9 8 9 10 10 8
2 4 3 4 3 5 6 5 7 6 6 6 7 6 3 4 4 5 4 2 2 3 4 5 8 7 6 6 7 5 8 7 7 9 10 9 5 7 3 2 5 7 6 9 9 10 8 8 9 11 11 9 12 13
4 6 5 5 4 6 4 4 2 4 6 4 6 1 2 3 4 1 2 2 1 2 1 2 1 2 4 3 5 3 5 6 6 7 4 8 8 4 5 5 5 5 3 3 5 6 6 7 9 10 5 4 4 11
4 6 5 5 1 3 5 5 5 5 5 4 2 2 2 3 1 3 2 2 3 2 2 1 1 1 1 3 3 0 2 6 8 5 3 4 5 4 3 2 3 0 5 4 6 7 6 8 9 11 11 11 8 8
5 4 8 6 8 6 5 5 5 4 3 3 4 2 4 5 4 3 3 5 6 6 5 4 3 3 4 1 2 4 5 7 7 10 10 9 6 2 5 3 7 5 3 4 6 6 6 6 8 9 11 10 10 8
5 3 4 7 7 5 6 5 3 2 3 4 4 4 4 3 4 5 6 6 4 4 4 2 3 5 3 4 3 3 5 6 10 11 11 7 7 6 4 4 5 5 6 8 10 8 8 9 10 10 11 6 9 10
7 7 4 6 6 6 3 2 1 3 2 3 4 3 0 3 3 3 3 5 5 4 5 1 2 3 3 2 4 4 3 4 4 5 6 7 7 6 6 7 7 7 8 10 11 12 13 11 10 10 13 13 10 10
2 6 7 7 6 6 1 1 4 6 6 6 2 2 3 1 2 4 5 4 3 5 4 3 4 3 0 1 2 5 5 4 3 4 5 8 9 8 8 9 10 10 11 13 13 13 14 14 12 11 12 13 13 10
8 9 6 6 5 4 6 4 3 3 3 3 1 2 1 1 1 2 5 3 3 5 3 1 3 7 8 8 8 6 5 6 6 6 6 8 7 8 9 9 10 10 12 12 12 11 12 11 10 10 9 9 11 10
9 7 7 6 4 4 4 2 4 4 5 5 7 6 6 4 3 3 2 2 2 5 6 7 8 5 5 8 10 10 10 10 13 15 16 17 18 13 6 9 9 10 11 10 11 10 9 9 10 11 11 10 10 10
Wind_Direction
268 267 264 232 209 189 196 198 207 219 234 244 263 273 296 321 333 304 329 66 296 290 288 295 278 270 263 277 269 145 181 203 202 228 241 152 270 183 226 271 269 248 266 259 223 269 276 10 240 262 19 323 9 319
263 255 251 225 198 183 190 188 206 218 229 239 255 267 286 312 320 311 272 121 297 263 296 321 288 286 288 300 306 154 230 194 212 210 231 193 246 217 212 272 159 240 248 304 321 359 246 291 305 298 331 307 313 297
260 250 233 192 172 174 169 192 213 213 227 236 243 258 272 292 292 289 309 326 274 262 267 244 242 236 231 240 262 289 217 337 214 288 232 268 290 264 249 251 228 211 206 245 269 256 280 288 293 274 272 268 273 230
256 216 174 163 161 170 179 205 212 215 228 234 240 248 274 276 272 271 259 305 283 279 280 258 75 238 242 226 220 243 272 264 293 276 248 217 237 271 252 360 309 15 120 241 267 255 263 252 229 285 274 240 267 203
147 133 123 139 158 169 196 209 214 228 236 234 233 251 275 275 260 260 258 254 271 291 317 320 321 265 231 239 212 217 232 250 244 222 237 235 245 157 241 284 289 285 229 256 268 360 316 341 7 271 240 214 243 182
73 110 130 140 156 188 206 218 236 235 239 237 241 263 278 273 249 257 241 180 209 230 274 275 9 283 243 201 214 213 217 225 243 253 232 240 102 276 264 278 311 281 282 243 269 290 301 117 189 136 131 46 63 78
119 131 147 164 183 194 195 228 235 238 237 243 257 268 269 245 244 257 2 12 114 208 249 256 236 170 227 214 207 211 207 221 228 233 250 251 211 182 261 265 286 279 278 288 257 228 221 166 181 141 127 126 107 107
144 139 173 206 200 195 212 232 244 257 252 267 275 275 258 223 272 281 229 180 168 254 257 266 246 188 189 202 193 203 192 214 210 244 232 238 163 208 253 274 273 278 272 257 226 213 228 179 176 151 148 140 137 151
215 202 217 201 206 218 207 207 281 285 279 279 273 246 194 206 221 124 116 142 219 291 296 227 268 66 161 236 183 179 203 202 230 215 241 217 232 185 226 259 270 278 260 241 215 208 232 197 174 164 159 160 187 245
225 214 225 214 204 202 230 299 303 287 279 276 228 219 203 142 114 138 183 183 194 208 224 257 275 240 211 205 173 187 212 226 198 219 231 233 244 237 241 257 264 264 262 216 219 199 212 217 189 180 181 188 184 141
226 216 221 216 216 222 237 271 288 289 243 214 225 86 88 152 211 224 227 210 187 221 209 227 254 260 157 262 215 211 194 217 220 222 253 233 243 242 234 240 236 236 247 217 232 203 209 216 208 179 188 186 162 150
201 213 214 217 226 230 250 267 265 249 243 338 302 328 230 214 225 237 198 219 214 226 168 214 181 222 164 309 273 231 242 253 207 235 225 244 261 269 259 252 215 214 231 217 208 225 207 216 215 186 192 172 161 164
196 216 220 221 228 232 240 252 262 296 287 246 214 227 211 207 233 230 185 210 212 173 178 180 175 207 188 257 213 238 255 242 312 219 234 234 254 199 157 163 239 222 210 231 228 222 213 209 198 185 179 162 160 169
199 210 219 229 231 233 239 230 252 251 251 239 198 232 223 199 226 211 264 33 15 131 180 194 161 199 208 185 240 194 198 234 213 244 242 232 343 201 175 197 219 203 212 216 218 209 200 194 191 173 179 153 159 177
205 212 222 232 227 222 225 221 234 225 271 253 236 237 221 252 80 329 56 218 227 263 187 301 234 213 192 200 217 233 181 219 222 240 258 123 172 291 41 311 255 229 197 207 207 196 195 186 180 171 166 160 162 169
194 238 220 161 187 205 201 204 207 219 262 252 234 247 288 211 214 230 275 267 273 246 157 227 282 241 194 221 190 228 222 228 240 64 116 121 73 54 29 359 298 256 211 207 205 193 186 178 177 174 167 173 169 169
189 251 120 142 180 174 198 251 194 210 242 256 235 237 268 256 292 295 243 225 71 257 219 201 209 209 264 229 225 213 227 241 280 151 159 78 82 12 336 339 343 246 222 210 200 185 184 178 176 173 174 182 174 171
246 121 55 158 172 135 197 219 250 234 235 239 257 259 249 257 256 233 247 267 173 217 276 242 330 212 211 227 241 344 297 334 54 15 125 119 50 359 321 330 321 256 218 207 192 183 182 181 177 173 178 181 179 170
0 48 15 192 202 225 198 209 236 260 241 257 271 287 287 300 292 292 280 260 295 162 252 231 239 243 238 249 246 191 205 323 355 358 19 292 228 295 320 308 289 245 217 202 186 184 179 182 181 179 180 178 189 175
287 305 289 261 235 240 217 197 264 266 269 259 265 260 257 252 261 279 252 248 219 199 221 217 243 259 310 338 307 306 22 347 323 301 290 290 277 220 228 308 288 184 206 194 197 200 171 180 192 186 184 178 197 180
139 214 185 179 207 260 275 179 254 248 265 251 277 286 269 262 253 240 239 245 249 226 233 242 260 275 290 302 117 301 310 263 318 319 289 275 302 319 292 249 238 220 201 186 188 182 170 189 189 181 173 179 206 187
128 190 122 179 238 262 253 230 250 208 243 248 212 217 227 218 236 247 258 244 239 235 234 248 259 273 262 243 252 206 253 275 214 230 247 277 273 276 266 235 216 207 205 191 186 173 187 182 182 176 168 190 206 185
311 209 123 168 222 218 255 214 239 229 252 238 168 221 222 192 190 165 234 239 236 241 239 244 236 233 255 255 218 215 197 235 251 211 222 265 267 260 257 207 212 202 197 184 182 176 190 160 161 181 177 182 191 166
293 205 195 208 212 245 261 230 238 246 244 233 248 246 215 167 163 214 237 246 247 253 239 240 225 220 196 220 232 211 212 222 236 251 203 229 259 260 267 187 185 186 172 161 181 165 150 164 160 187 180 191 191 174
192 199 194 229 238 253 224 222 207 220 251 250 235 260 190 170 209 227 213 125 58 25 335 227 239 216 216 193 191 222 236 195 187 212 237 235 232 242 217 193 148 131 156 173 173 150 152 168 184 198 192 186 190 187
228 207 202 209 191 228 249 267 265 270 271 252 240 241 147 228 243 253 76 91 82 58 340 336 152 272 280 297 270 216 173 170 157 223 207 211 233 196 173 168 166 141 175 154 148 165 191 170 200 188 166 102 181 171
239 212 198 202 115 303 281 259 249 275 262 263 326 287 249 244 102 70 69 5 357 345 319 339 340 313 216 233 251 73 160 165 175 176 182 235 251 258 209 225 247 144 139 196 183 174 182 205 179 173 150 146 165 179
260 260 222 214 219 215 228 251 256 238 258 349 309 278 357 16 41 32 7 345 329 339 347 295 322 252 264 12 212 162 169 163 160 156 164 179 191 211 281 114 94 358 162 171 191 172 158 154 165 144 134 147 151 148
240 231 271 239 232 229 238 244 262 20 345 322 318 355 13 28 13 10 359 341 334 303 297 346 41 318 204 175 156 178 179 181 175 178 183 176 158 146 143 126 147 143 125 115 55 104 130 141 132 123 121 131 182 169
233 191 218 257 227 247 245 38 11 333 16 338 298 270 290 80 14 325 335 348 358 2 343 250 198 158 183 152 134 118 134 158 174 172 181 169 151 105 123 127 118 116 121 132 129 116 103 106 105 160 177 182 167 170
254 218 221 240 251 245 195 293 0 335 292 282 292 357 10 296 105 20 346 14 14 320 280 100 243 225 8 92 153 172 118 77 78 42 74 115 148 153 143 140 136 139 141 141 147 159 168 173 171 166 167 172 165 190
221 226 227 236 252 107 61 32 338 281 249 168 145 218 237 148 116 20 4 16 343 318 23 273 35 41 56 89 85 77 42 99 127 128 128 102 108 127 132 123 136 142 142 149 149 144 171 165 163 170 162 181 152 214
214 211 218 238 239 165 93 306 263 230 200 212 220 234 213 187 99 95 130 35 14 350 18 4 0 39 48 68 86 84 78 76 67 60 58 49 37 17 131 128 134 145 158 152 142 152 182 160 152 166 175 174 178 195